Beale AFB, CA

4:24 AM PST on November 23, 2017 (GMT -0800)
Beale Air Force Base

Weather History for KBAB - January, 2013

Change the Weather History Date:

Wednesday, January 23, 2013

  Actual Average Record
Temperature  
Mean Temperature 49 °F -  
Max Temperature 57 °F 53 °F 74 °F (2014)
Min Temperature 41 °F 40 °F 28 °F (2002)
Degree Days  
Heating Degree Days 16    
Moisture  
Dew Point 44 °F    
Average Humidity 85    
Maximum Humidity 100    
Minimum Humidity 54    
Precipitation  
Precipitation 0.05 in - - ()
Sea Level Pressure  
Sea Level Pressure 30.07 in    
Wind  
Wind Speed 5 mph (NNW)    
Max Wind Speed 16 mph    
Max Gust Speed -    
Visibility 6 miles    
Events Rain    
Averages and records for this station are not official NWS values.
T = Trace of Precipitation, MM = Missing Value Source: NWS Daily Summary

Daily Weather History Graph

Daily Weather History Graph

Search for Another Location

Airport or City:

Trip Planner

Search our weather history database for the weather conditions in past years. The results will help you decide how hot, cold, wet, or windy it might be!

Date:

Astronomy

Jan. 23, 2013 Rise Set
Actual Time 7:19 AM PST 5:16 PM PST
Civil Twilight 6:50 AM PST 5:45 PM PST
Nautical Twilight 6:17 AM PST 6:17 PM PST
Astronomical Twilight 5:46 AM PST 6:49 PM PST
Moon 2:31 PM PST 4:34 AM PST
Length of Visible Light 10h 55m
Length of Day
9h 57m
Waxing Gibbous, 90% of the Moon is Illuminated
Jan 23
Waxing Gibbous
Jan 26
Full
Feb 3
Last Quarter
Feb 9
New
Feb 17
First Quarter

Hourly Weather History & Observations

Time (PST) Temp. Windchill Dew Point Humidity Pressure Visibility Wind Dir Wind Speed Gust Speed Precip Events Conditions
12:58 AM 42.8 °F 40.1 °F 37.0 °F 80% 30.06 in 10.0 mi ENE 4.6 mph - N/A   Mostly Cloudy
1:58 AM 44.8 °F - 37.9 °F 77% 30.05 in 10.0 mi Calm Calm - N/A   Overcast
2:58 AM 44.6 °F 43.1 °F 37.8 °F 77% 30.04 in 10.0 mi East 3.5 mph - N/A   Mostly Cloudy
3:58 AM 43.9 °F 42.3 °F 39.2 °F 84% 30.02 in 10.0 mi NNE 3.5 mph - N/A   Overcast
4:58 AM 44.8 °F 43.3 °F 38.8 °F 80% 30.01 in 10.0 mi NW 3.5 mph - N/A   Overcast
5:58 AM 43.2 °F 40.5 °F 39.9 °F 88% 30.01 in 10.0 mi NNE 4.6 mph - N/A   Overcast
6:58 AM 41.2 °F 37.3 °F 37.9 °F 88% 30.01 in 10.0 mi West 5.8 mph - N/A   Overcast
7:58 AM 43.9 °F 42.3 °F 39.9 °F 86% 30.02 in 10.0 mi North 3.5 mph - N/A   Overcast
8:58 AM 45.5 °F - 42.8 °F 90% 30.03 in 10.0 mi Calm Calm - N/A   Overcast
9:58 AM 48.0 °F - 41.0 °F 77% 30.06 in 10.0 mi NW 2.3 mph - N/A   Overcast
10:58 AM 50.7 °F - 41.4 °F 70% 30.09 in 10.0 mi East 2.3 mph - N/A   Overcast
11:58 AM 54.7 °F - 39.9 °F 58% 30.06 in 10.0 mi East 4.6 mph - N/A   Mostly Cloudy
12:58 PM 57.2 °F - 40.5 °F 54% 30.06 in 10.0 mi SSW 4.6 mph - N/A   Mostly Cloudy
1:58 PM 57.2 °F - 40.8 °F 54% 30.05 in 10.0 mi SW 2.3 mph - N/A   Overcast
2:58 PM 56.3 °F - 41.9 °F 59% 30.06 in 10.0 mi WSW 2.3 mph - N/A   Overcast
3:20 PM 55.4 °F - 44.6 °F 67% 30.07 in 6.0 mi South 3.5 mph - N/A   Light Drizzle
3:41 PM 53.6 °F - 44.6 °F 72% 30.06 in 2.0 mi Calm Calm - N/A Rain Light Rain
3:51 PM 53.6 °F - 44.6 °F 72% 30.06 in 3.0 mi NE 3.5 mph - N/A Rain Light Rain
3:58 PM 51.8 °F - 46.4 °F 82% 30.07 in 4.0 mi NE 3.5 mph - 0.01 in Rain Light Rain
4:26 PM 51.8 °F - 48.2 °F 88% 30.08 in 3.0 mi NE 4.6 mph - N/A Rain Light Rain
4:57 PM 51.8 °F - 48.2 °F 88% 30.09 in 3.0 mi NE 4.6 mph - N/A Rain Light Rain
5:56 PM 50.0 °F - 50.0 °F 100% 30.10 in 3.0 mi WNW 8.1 mph - N/A Rain Light Rain
6:55 PM 48.2 °F - 48.2 °F 100% 30.11 in 3.0 mi NNW 9.2 mph - N/A Rain Light Rain
7:55 PM 48.2 °F - 48.2 °F 100% 30.12 in 3.0 mi NW 8.1 mph - 0.03 in Rain Light Rain
8:58 PM 48.2 °F - 48.2 °F 100% 30.10 in 3.0 mi NW 9.2 mph - N/A   Light Drizzle
9:01 PM 48.2 °F - 48.2 °F 100% 30.11 in 2.0 mi NW 9.2 mph - N/A   Light Drizzle
9:17 PM 48.2 °F - 48.2 °F 100% 30.10 in 5.0 mi NNW 11.5 mph - N/A   Light Drizzle
9:58 PM 48.2 °F - 48.2 °F 100% 30.11 in 5.0 mi NW 12.7 mph - 0.00 in   Light Drizzle
10:11 PM 48.2 °F - 48.2 °F 100% 30.11 in 2.5 mi NW 8.1 mph - N/A   Light Drizzle
10:58 PM 47.8 °F - 47.8 °F 100% 30.12 in 2.5 mi NW 12.7 mph - 0.01 in   Light Drizzle
11:08 PM 48.2 °F - 48.2 °F 100% 30.11 in 2.5 mi NW 16.1 mph - N/A Rain Light Rain
11:32 PM 48.2 °F - 48.2 °F 100% 30.12 in 2.5 mi NW 12.7 mph - N/A Rain Light Rain
11:58 PM 48.2 °F - 48.2 °F 100% 30.12 in 1.5 mi NW 13.8 mph - 0.00 in Rain Light Rain